TimePST,TemperatureF,Dew PointF,Humidity,Sea Level PressureIn,VisibilityMPH,Wind Direction,Wind SpeedMPH,Gust SpeedMPH,PrecipitationIn,Events,Conditions,WindDirDegrees,DateUTC
12:44 AM,59.0,57.2,94,29.87,3.0,East,6.9,-,0.01,Rain,Light Rain,80,2013-11-21 08:44:00
12:53 AM,59.0,57.0,93,29.86,5.0,East,6.9,-,0.01,Rain,Light Rain,90,2013-11-21 08:53:00
1:13 AM,59.0,57.2,94,29.86,2.0,East,6.9,-,0.02,Rain,Light Rain,100,2013-11-21 09:13:00
1:18 AM,59.0,57.2,94,29.86,2.0,East,9.2,-,0.03,Rain,Light Rain,90,2013-11-21 09:18:00
1:53 AM,59.0,57.0,93,29.85,2.5,East,8.1,-,0.04,Rain,Light Rain,90,2013-11-21 09:53:00
2:05 AM,59.0,57.2,94,29.85,2.0,East,8.1,-,0.01,Rain,Light Rain,90,2013-11-21 10:05:00
2:45 AM,59.0,57.2,94,29.84,2.5,East,9.2,-,0.01,Rain,Light Rain,90,2013-11-21 10:45:00
2:53 AM,59.0,57.0,93,29.83,2.0,East,8.1,-,0.02,Rain,Light Rain,80,2013-11-21 10:53:00
3:44 AM,59.0,57.2,94,29.83,1.8,ENE,6.9,-,0.00,Rain,Light Rain,70,2013-11-21 11:44:00
3:53 AM,59.0,57.0,93,29.83,1.8,East,6.9,-,0.01,Rain,Light Rain,80,2013-11-21 11:53:00
4:12 AM,59.0,57.2,94,29.82,2.5,East,8.1,-,0.01,Rain,Light Rain,90,2013-11-21 12:12:00
4:33 AM,59.0,57.2,94,29.83,2.0,East,4.6,-,0.03,Rain,Light Rain,90,2013-11-21 12:33:00
4:40 AM,59.0,57.2,94,29.83,1.2,East,5.8,-,0.09,Rain,Heavy Rain,90,2013-11-21 12:40:00
4:53 AM,59.0,57.9,96,29.83,1.8,East,6.9,-,0.13,Rain,Heavy Rain,80,2013-11-21 12:53:00
5:01 AM,59.0,57.2,94,29.84,2.5,East,3.5,-,0.01,Rain,Light Rain,90,2013-11-21 13:01:00
5:08 AM,59.0,57.2,94,29.83,4.0,Calm,Calm,-,0.01,Rain,Light Rain,0,2013-11-21 13:08:00
5:29 AM,60.8,57.2,88,29.83,2.5,Calm,Calm,-,0.02,Rain,Light Rain,0,2013-11-21 13:29:00
5:37 AM,60.8,57.2,88,29.83,6.0,Calm,Calm,-,0.02,,Overcast,0,2013-11-21 13:37:00
5:53 AM,60.1,59.0,96,29.83,6.0,Calm,Calm,-,0.02,,Overcast,0,2013-11-21 13:53:00
6:25 AM,60.8,59.0,94,29.84,2.5,SW,3.5,-,0.01,Rain,Light Rain,220,2013-11-21 14:25:00
6:32 AM,60.8,59.0,94,29.84,7.0,SSW,4.6,-,0.01,,Overcast,210,2013-11-21 14:32:00
6:39 AM,60.8,59.0,94,29.84,4.0,SSW,4.6,-,0.01,,Overcast,200,2013-11-21 14:39:00
6:53 AM,61.0,59.0,93,29.85,2.5,SW,6.9,-,0.01,Rain,Light Rain,220,2013-11-21 14:53:00
7:00 AM,60.8,59.0,94,29.85,4.0,SW,4.6,-,0.00,,Overcast,220,2013-11-21 15:00:00
7:11 AM,60.8,59.0,94,29.85,10.0,South,3.5,-,0.00,,Overcast,190,2013-11-21 15:11:00
7:53 AM,61.0,59.0,93,29.85,10.0,South,3.5,-,0.00,,Overcast,180,2013-11-21 15:53:00
8:01 AM,62.6,59.0,88,29.85,10.0,South,3.5,-,N/A,,Overcast,170,2013-11-21 16:01:00
8:36 AM,62.6,59.0,88,29.86,10.0,SSW,4.6,-,N/A,,Overcast,210,2013-11-21 16:36:00
8:46 AM,62.6,60.8,94,29.86,10.0,Variable,4.6,-,N/A,,Overcast,0,2013-11-21 16:46:00
8:48 AM,62.6,59.0,88,29.86,10.0,Variable,5.8,-,N/A,,Overcast,0,2013-11-21 16:48:00
8:53 AM,62.1,59.0,90,29.86,10.0,WSW,5.8,-,N/A,,Overcast,250,2013-11-21 16:53:00
9:13 AM,62.6,59.0,88,29.86,10.0,Variable,3.5,-,N/A,,Overcast,0,2013-11-21 17:13:00
9:25 AM,62.6,59.0,88,29.86,10.0,WSW,5.8,-,N/A,,Overcast,240,2013-11-21 17:25:00
9:53 AM,63.0,57.9,84,29.87,10.0,Variable,3.5,-,N/A,,Overcast,0,2013-11-21 17:53:00
10:17 AM,62.6,57.2,82,29.87,10.0,WSW,6.9,-,N/A,,Overcast,240,2013-11-21 18:17:00
10:26 AM,62.6,57.2,82,29.87,10.0,Variable,4.6,-,0.00,Rain,Light Rain,0,2013-11-21 18:26:00
10:35 AM,62.6,57.2,82,29.87,10.0,Variable,5.8,-,0.00,,Overcast,0,2013-11-21 18:35:00
10:53 AM,62.1,57.9,86,29.86,7.0,Variable,4.6,-,0.00,Rain,Light Rain,0,2013-11-21 18:53:00
11:13 AM,62.6,59.0,88,29.86,10.0,Variable,3.5,-,0.01,,Overcast,0,2013-11-21 19:13:00
11:53 AM,64.0,57.9,80,29.84,10.0,WSW,4.6,-,0.01,,Overcast,240,2013-11-21 19:53:00
12:00 PM,64.4,57.2,77,29.84,10.0,Variable,3.5,-,N/A,,Overcast,0,2013-11-21 20:00:00
12:53 PM,64.0,57.0,78,29.83,10.0,WSW,4.6,-,0.00,,Overcast,250,2013-11-21 20:53:00
1:09 PM,64.4,55.4,73,29.83,10.0,WSW,3.5,-,N/A,,Overcast,240,2013-11-21 21:09:00
1:51 PM,64.4,53.6,68,29.84,10.0,SSW,11.5,-,N/A,,Mostly Cloudy,200,2013-11-21 21:51:00
1:53 PM,64.0,54.0,70,29.84,10.0,SSW,10.4,-,N/A,,Mostly Cloudy,210,2013-11-21 21:53:00
2:53 PM,63.0,55.0,75,29.83,10.0,SSW,6.9,-,N/A,,Scattered Clouds,210,2013-11-21 22:53:00
3:12 PM,62.6,53.6,72,29.84,10.0,SW,6.9,-,N/A,,Mostly Cloudy,230,2013-11-21 23:12:00
3:27 PM,62.6,53.6,72,29.84,10.0,SW,8.1,-,N/A,,Scattered Clouds,220,2013-11-21 23:27:00
3:53 PM,62.1,53.1,72,29.85,10.0,SSW,8.1,-,N/A,,Mostly Cloudy,210,2013-11-21 23:53:00
4:53 PM,61.0,52.0,72,29.86,10.0,SSW,4.6,-,N/A,,Overcast,200,2013-11-22 00:53:00
5:53 PM,60.1,52.0,75,29.87,10.0,Calm,Calm,-,N/A,,Overcast,0,2013-11-22 01:53:00
6:19 PM,60.8,51.8,72,29.87,10.0,SW,3.5,-,N/A,,Overcast,230,2013-11-22 02:19:00
6:53 PM,60.1,52.0,75,29.87,10.0,Calm,Calm,-,N/A,,Scattered Clouds,0,2013-11-22 02:53:00
7:53 PM,57.0,52.0,83,29.87,10.0,Calm,Calm,-,N/A,,Clear,0,2013-11-22 03:53:00
8:53 PM,57.9,53.1,84,29.88,10.0,Calm,Calm,-,N/A,,Overcast,0,2013-11-22 04:53:00
9:53 PM,57.9,52.0,81,29.87,10.0,North,3.5,-,N/A,,Clear,10,2013-11-22 05:53:00
10:53 PM,57.0,52.0,83,29.87,10.0,SE,3.5,-,N/A,,Partly Cloudy,130,2013-11-22 06:53:00
11:53 PM,57.0,52.0,83,29.86,10.0,Calm,Calm,-,N/A,,Clear,0,2013-11-22 07:53:00